Location: Cossonay
(46.5833°N, 6.4167°E)
Time: 22:52:03
(UTC+00:00)

CBERS-1 - Visible Passes

Search period start: 01 October 2020 00:00
Search period end: 11 October 2020 00:00
Orbit: 769 x 777 km, 98.6° (Epoch: 01 October)

Date Brightness Start Highest point End Pass type
(mag) Time Alt. Az. Time Alt. Az. Time Alt. Az.
01 Oct 5.7 01:53:59 10° NNE 01:56:26 29° NNE 01:56:26 29° NNE visible
01 Oct 5.8 03:34:22 10° NNW 03:36:47 17° NW 03:36:47 17° NW visible
02 Oct 6.4 01:19:50 10° NNE 01:21:31 19° NE 01:21:31 19° NE visible
02 Oct 5.5 02:59:09 10° N 03:01:53 25° NNW 03:01:53 25° NNW visible
03 Oct 6.9 00:46:16 10° NE 00:46:36 11° NE 00:46:36 11° NE visible
03 Oct 5.5 02:24:23 10° N 02:26:57 29° N 02:26:57 29° N visible
03 Oct 6.1 04:07:08 10° NW 04:07:19 10° NW 04:07:19 10° NW visible
04 Oct 6.0 01:49:57 10° NNE 01:52:02 25° NNE 01:52:02 25° NNE visible
04 Oct 5.8 03:30:12 10° NNW 03:32:24 17° NW 03:32:24 17° NW visible
05 Oct 6.6 01:15:52 10° NNE 01:17:06 17° NE 01:17:06 17° NE visible
05 Oct 5.6 02:55:04 10° N 02:57:29 24° NNW 02:57:29 24° NNW visible
06 Oct 5.7 02:20:21 10° N 02:22:33 26° N 02:22:33 26° N visible
06 Oct 6.1 04:02:16 10° NW 04:02:55 11° NW 04:02:55 11° NW visible
07 Oct 6.2 01:45:56 10° NNE 01:47:38 21° NNE 01:47:38 21° NNE visible
07 Oct 5.8 03:26:02 10° NNW 03:28:00 17° NW 03:28:00 17° NW visible
08 Oct 6.8 01:11:54 10° NNE 01:12:43 14° NE 01:12:43 14° NE visible
08 Oct 5.7 02:50:58 10° N 02:53:04 22° NNW 02:53:04 22° NNW visible
09 Oct 5.9 02:16:17 10° N 02:18:09 23° N 02:18:09 23° N visible
09 Oct 6.1 03:57:48 10° NNW 03:58:31 11° NW 03:58:31 11° NW visible
10 Oct 6.4 01:41:55 10° NNE 01:43:14 18° NNE 01:43:14 18° NNE visible
10 Oct 5.9 03:21:54 10° NNW 03:23:36 17° NNW 03:23:36 17° NNW visible
